Time,TemperatureF,DewpointF,PressureIn,WindDirection,WindDirectionDegrees,WindSpeedMPH,WindSpeedGustMPH,Humidity,HourlyPrecipIn,Conditions,Clouds,dailyrainin,SoftwareType,DateUTC
2013-03-18 00:00:00,29.1,12.3,30.25,North,0,0.0,0.0,49,0.00,CLR,,0.01,WeatherDisplay:10.37,2013-03-18 04:00:00,
2013-03-18 00:01:00,29.1,12.8,30.25,North,0,0.0,0.0,50,0.00,RA,,0.00,WeatherDisplay:10.37,2013-03-18 04:01:00,
2013-03-18 00:02:00,29.1,12.3,30.25,North,0,0.0,0.0,49,0.00,RA,,0.00,WeatherDisplay:10.37,2013-03-18 04:02:00,
2013-03-18 00:07:00,29.1,11.8,30.25,North,359,0.0,0.0,48,0.00,RA,,0.00,WeatherDisplay:10.37,2013-03-18 04:07:00,
2013-03-18 00:12:00,29.0,12.7,30.25,North,359,0.0,0.0,50,0.00,CLR,,0.00,WeatherDisplay:10.37,2013-03-18 04:12:00,
2013-03-18 00:17:00,28.8,12.0,30.25,North,1,5.1,8.1,49,0.00,CLR,,0.00,WeatherDisplay:10.37,2013-03-18 04:17:00,
2013-03-18 00:22:00,28.7,12.8,30.25,North,8,0.0,0.0,51,0.00,CLR,,0.00,WeatherDisplay:10.37,2013-03-18 04:22:00,
2013-03-18 00:28:00,28.4,11.6,30.25,NE,35,0.0,0.0,49,0.00,CLR,,0.00,WeatherDisplay:10.37,2013-03-18 04:28:00,
2013-03-18 00:33:00,28.2,11.9,30.25,North,359,1.8,5.0,50,0.00,CLR,,0.00,WeatherDisplay:10.37,2013-03-18 04:33:00,
2013-03-18 00:38:00,28.1,12.7,30.25,North,4,1.5,4.6,52,0.00,CLR,,0.00,WeatherDisplay:10.37,2013-03-18 04:38:00,
2013-03-18 00:43:00,27.9,12.1,30.25,North,0,6.9,8.1,51,0.00,CLR,,0.00,WeatherDisplay:10.37,2013-03-18 04:43:00,
2013-03-18 00:48:00,27.9,12.1,30.25,North,0,5.2,8.1,51,0.00,CLR,,0.00,WeatherDisplay:10.37,2013-03-18 04:48:00,
2013-03-18 00:53:00,27.6,11.8,30.25,NNE,13,0.0,0.0,51,0.00,CLR,,0.00,WeatherDisplay:10.37,2013-03-18 04:53:00,
2013-03-18 00:58:00,27.6,11.4,30.25,NE,34,0.0,0.0,50,0.00,CLR,,0.00,WeatherDisplay:10.37,2013-03-18 04:58:00,
2013-03-18 01:03:00,27.5,11.3,30.25,NE,54,0.0,0.0,50,0.00,CLR,,0.00,WeatherDisplay:10.37,2013-03-18 05:03:00,
2013-03-18 01:08:00,27.3,11.1,30.25,NE,54,0.0,0.0,50,0.00,CLR,,0.00,WeatherDisplay:10.37,2013-03-18 05:08:00,
2013-03-18 01:13:00,27.2,11.4,30.24,NNE,27,0.0,0.0,51,0.00,CLR,,0.00,WeatherDisplay:10.37,2013-03-18 05:13:00,
2013-03-18 01:18:00,27.3,11.1,30.25,NE,51,0.1,2.3,50,0.00,CLR,,0.00,WeatherDisplay:10.37,2013-03-18 05:18:00,
2013-03-18 01:24:00,27.2,11.4,30.25,NE,49,0.2,1.2,51,0.00,CLR,,0.00,WeatherDisplay:10.37,2013-03-18 05:24:00,
2013-03-18 01:29:00,27.0,11.3,30.25,NE,44,0.2,2.3,51,0.00,CLR,,0.00,WeatherDisplay:10.37,2013-03-18 05:29:00,
2013-03-18 01:34:00,27.0,11.7,30.24,NNE,28,0.0,0.0,52,0.00,CLR,,0.00,WeatherDisplay:10.37,2013-03-18 05:34:00,
2013-03-18 01:39:00,26.7,11.4,30.25,NE,34,0.0,0.0,52,0.00,CLR,,0.00,WeatherDisplay:10.37,2013-03-18 05:39:00,
2013-03-18 01:44:00,26.6,12.2,30.25,North,359,0.0,0.0,54,0.00,CLR,,0.00,WeatherDisplay:10.37,2013-03-18 05:44:00,
2013-03-18 01:49:00,26.6,12.2,30.25,North,359,2.5,6.9,54,0.00,CLR,,0.00,WeatherDisplay:10.37,2013-03-18 05:49:00,
2013-03-18 01:55:00,26.6,11.7,30.25,North,4,0.0,0.0,53,0.00,CLR,,0.00,WeatherDisplay:10.37,2013-03-18 05:55:00,
2013-03-18 02:00:00,26.4,11.6,30.25,ENE,78,0.0,0.0,53,0.00,CLR,,0.00,WeatherDisplay:10.37,2013-03-18 06:00:00,
2013-03-18 02:05:00,26.3,13.5,30.25,ENE,78,0.0,0.0,58,0.00,CLR,,0.00,WeatherDisplay:10.37,2013-03-18 06:05:00,
2013-03-18 02:10:00,25.8,12.2,30.25,ENE,73,0.0,0.0,56,0.00,CLR,,0.00,WeatherDisplay:10.37,2013-03-18 06:10:00,
2013-03-18 02:15:00,25.8,12.2,30.26,ENE,73,0.0,0.0,56,0.00,CLR,,0.00,WeatherDisplay:10.37,2013-03-18 06:15:00,
2013-03-18 02:20:00,25.7,12.2,30.26,NNE,13,1.6,5.8,56,0.00,CLR,,0.00,WeatherDisplay:10.37,2013-03-18 06:20:00,
2013-03-18 02:26:00,25.7,11.7,30.26,NNE,14,0.0,0.0,55,0.00,CLR,,0.00,WeatherDisplay:10.37,2013-03-18 06:26:00,
2013-03-18 02:31:00,25.6,11.7,30.27,NE,47,0.0,0.0,55,0.00,CLR,,0.00,WeatherDisplay:10.37,2013-03-18 06:31:00,
2013-03-18 02:36:00,25.4,11.9,30.27,NE,47,0.0,0.0,56,0.00,CLR,,0.00,WeatherDisplay:10.37,2013-03-18 06:36:00,
2013-03-18 02:41:00,25.3,12.2,30.27,NE,47,0.0,0.0,57,0.00,CLR,,0.00,WeatherDisplay:10.37,2013-03-18 06:41:00,
2013-03-18 02:46:00,25.3,11.8,30.27,NE,52,0.4,3.5,56,0.00,CLR,,0.00,WeatherDisplay:10.37,2013-03-18 06:46:00,
2013-03-18 02:51:00,25.4,11.5,30.27,NNE,28,0.2,1.2,55,0.00,CLR,,0.00,WeatherDisplay:10.37,2013-03-18 06:51:00,
2013-03-18 02:56:00,25.4,12.3,30.28,NNE,17,0.0,0.0,57,0.00,CLR,,0.00,WeatherDisplay:10.37,2013-03-18 06:56:00,
2013-03-18 03:02:00,25.4,11.5,30.28,NE,44,0.0,0.0,55,0.00,CLR,,0.00,WeatherDisplay:10.37,2013-03-18 07:02:00,
2013-03-18 03:07:00,25.4,11.5,30.28,NE,47,0.0,0.0,55,0.00,CLR,,0.00,WeatherDisplay:10.37,2013-03-18 07:07:00,
2013-03-18 03:12:00,25.4,11.5,30.28,NE,37,0.1,0.0,55,0.00,CLR,,0.00,WeatherDisplay:10.37,2013-03-18 07:12:00,
2013-03-18 03:17:00,25.3,11.4,30.28,NE,35,0.1,1.2,55,0.00,CLR,,0.00,WeatherDisplay:10.37,2013-03-18 07:17:00,
2013-03-18 03:22:00,25.1,11.2,30.28,NE,41,0.0,0.0,55,0.00,CLR,,0.00,WeatherDisplay:10.37,2013-03-18 07:22:00,
2013-03-18 03:27:00,25.1,11.6,30.29,NNE,16,0.0,0.0,56,0.00,CLR,,0.00,WeatherDisplay:10.37,2013-03-18 07:27:00,
2013-03-18 03:32:00,25.0,11.1,30.29,NNE,16,0.0,0.0,55,0.00,CLR,,0.00,WeatherDisplay:10.37,2013-03-18 07:32:00,
2013-03-18 03:37:00,25.0,11.5,30.29,NNE,16,0.2,0.0,56,0.00,CLR,,0.00,WeatherDisplay:10.37,2013-03-18 07:37:00,
2013-03-18 03:43:00,25.0,11.1,30.29,NNE,14,0.0,2.3,55,0.00,CLR,,0.00,WeatherDisplay:10.37,2013-03-18 07:43:00,
2013-03-18 03:48:00,24.8,11.3,30.29,North,11,0.0,0.0,56,0.00,CLR,,0.00,WeatherDisplay:10.37,2013-03-18 07:48:00,
2013-03-18 03:53:00,24.7,10.8,30.29,NNE,23,0.0,0.0,55,0.00,CLR,,0.00,WeatherDisplay:10.37,2013-03-18 07:53:00,
2013-03-18 03:58:00,24.7,10.8,30.29,NNE,30,0.0,0.0,55,0.00,CLR,,0.00,WeatherDisplay:10.37,2013-03-18 07:58:00,
2013-03-18 04:03:00,24.5,10.6,30.29,ENE,61,0.0,0.0,55,0.00,CLR,,0.00,WeatherDisplay:10.37,2013-03-18 08:03:00,
2013-03-18 04:08:00,24.5,10.6,30.29,ENE,59,0.0,0.0,55,0.00,CLR,,0.00,WeatherDisplay:10.37,2013-03-18 08:08:00,
2013-03-18 04:13:00,24.4,10.5,30.29,ENE,58,0.0,0.0,55,0.00,CLR,,0.00,WeatherDisplay:10.37,2013-03-18 08:13:00,
2013-03-18 04:18:00,24.2,10.7,30.29,NE,56,0.0,0.0,56,0.00,CLR,,0.00,WeatherDisplay:10.37,2013-03-18 08:18:00,
2013-03-18 04:23:00,24.1,11.0,30.29,NE,55,0.0,0.0,57,0.00,CLR,,0.00,WeatherDisplay:10.37,2013-03-18 08:23:00,
2013-03-18 04:29:00,23.9,10.9,30.29,ENE,58,0.0,0.0,57,0.00,CLR,,0.00,WeatherDisplay:10.37,2013-03-18 08:29:00,
2013-03-18 04:34:00,23.9,10.5,30.30,NE,51,0.0,0.0,56,0.00,CLR,,0.00,WeatherDisplay:10.37,2013-03-18 08:34:00,
2013-03-18 04:39:00,23.9,10.9,30.29,NE,48,0.0,0.0,57,0.00,CLR,,0.00,WeatherDisplay:10.37,2013-03-18 08:39:00,
2013-03-18 04:44:00,23.8,10.8,30.30,NE,47,0.0,0.0,57,0.00,CLR,,0.00,WeatherDisplay:10.37,2013-03-18 08:44:00,
2013-03-18 04:49:00,23.6,11.0,30.30,NE,47,0.0,0.0,58,0.00,CLR,,0.00,WeatherDisplay:10.37,2013-03-18 08:49:00,
2013-03-18 04:54:00,23.6,11.0,30.30,North,8,0.0,2.3,58,0.00,CLR,,0.00,WeatherDisplay:10.37,2013-03-18 08:54:00,
2013-03-18 05:00:00,23.6,11.4,30.30,North,8,0.0,0.0,59,0.00,CLR,,0.00,WeatherDisplay:10.37,2013-03-18 09:00:00,
2013-03-18 05:05:00,23.5,11.3,30.30,North,8,0.0,0.0,59,0.00,CLR,,0.00,WeatherDisplay:10.37,2013-03-18 09:05:00,
2013-03-18 05:10:00,23.5,10.5,30.30,ENE,69,0.0,0.0,57,0.00,CLR,,0.00,WeatherDisplay:10.37,2013-03-18 09:10:00,
2013-03-18 05:15:00,23.6,10.6,30.30,NE,47,0.4,2.3,57,0.00,CLR,,0.00,WeatherDisplay:10.37,2013-03-18 09:15:00,
2013-03-18 05:20:00,23.6,10.2,30.30,ENE,59,0.0,0.0,56,0.00,CLR,,0.00,WeatherDisplay:10.37,2013-03-18 09:20:00,
2013-03-18 05:25:00,23.6,10.6,30.30,NE,42,1.0,5.8,57,0.00,CLR,,0.00,WeatherDisplay:10.37,2013-03-18 09:25:00,
2013-03-18 05:30:00,23.6,10.6,30.30,NE,45,0.0,2.3,57,0.00,CLR,,0.00,WeatherDisplay:10.37,2013-03-18 09:30:00,
2013-03-18 05:36:00,23.6,10.2,30.30,ENE,58,2.0,4.6,56,0.00,CLR,,0.00,WeatherDisplay:10.37,2013-03-18 09:36:00,
2013-03-18 05:41:00,23.8,10.0,30.31,NE,55,0.0,0.0,55,0.00,CLR,,0.00,WeatherDisplay:10.37,2013-03-18 09:41:00,
2013-03-18 05:47:00,23.8,9.6,30.31,NE,49,0.4,3.5,54,0.00,CLR,,0.00,WeatherDisplay:10.37,2013-03-18 09:47:00,
2013-03-18 05:52:00,23.9,9.6,30.31,NNE,31,1.2,3.5,54,0.00,CLR,,0.00,WeatherDisplay:10.37,2013-03-18 09:52:00,
2013-03-18 05:57:00,23.9,9.6,30.31,NE,40,1.0,5.8,54,0.00,CLR,,0.00,WeatherDisplay:10.37,2013-03-18 09:57:00,
2013-03-18 06:02:00,23.8,9.1,30.31,NE,41,1.6,5.8,53,0.00,CLR,,0.00,WeatherDisplay:10.37,2013-03-18 10:02:00,
2013-03-18 06:07:00,23.8,8.7,30.32,ENE,64,0.0,0.0,52,0.00,CLR,,0.00,WeatherDisplay:10.37,2013-03-18 10:07:00,
2013-03-18 06:13:00,23.8,8.7,30.32,NNE,23,0.0,0.0,52,0.00,CLR,,0.00,WeatherDisplay:10.37,2013-03-18 10:13:00,
2013-03-18 06:18:00,23.8,8.7,30.31,NNE,24,0.5,3.5,52,0.00,CLR,,0.00,WeatherDisplay:10.37,2013-03-18 10:18:00,
2013-03-18 06:23:00,23.8,8.7,30.32,NE,48,0.0,0.0,52,0.00,CLR,,0.00,WeatherDisplay:10.37,2013-03-18 10:23:00,
2013-03-18 06:28:00,23.8,8.3,30.32,NE,35,0.0,0.0,51,0.00,CLR,,0.00,WeatherDisplay:10.37,2013-03-18 10:28:00,
2013-03-18 06:33:00,23.9,8.4,30.32,NE,49,0.0,0.0,51,0.00,CLR,,0.00,WeatherDisplay:10.37,2013-03-18 10:33:00,
2013-03-18 06:38:00,23.8,8.3,30.32,NE,45,0.0,0.0,51,0.00,CLR,,0.00,WeatherDisplay:10.37,2013-03-18 10:38:00,
2013-03-18 06:43:00,23.8,8.3,30.32,NE,49,0.2,0.0,51,0.00,CLR,,0.00,WeatherDisplay:10.37,2013-03-18 10:43:00,
2013-03-18 06:49:00,23.9,8.4,30.32,NE,47,0.0,0.0,51,0.00,CLR,,0.00,WeatherDisplay:10.37,2013-03-18 10:49:00,
2013-03-18 06:54:00,23.9,7.9,30.32,North,0,0.6,1.2,50,0.00,CLR,,0.00,WeatherDisplay:10.37,2013-03-18 10:54:00,
2013-03-18 06:59:00,23.9,8.4,30.31,North,0,0.0,0.0,51,0.00,CLR,,0.00,WeatherDisplay:10.37,2013-03-18 10:59:00,
2013-03-18 07:05:00,23.9,7.9,30.32,ENE,61,0.0,0.0,50,0.00,CLR,,0.00,WeatherDisplay:10.37,2013-03-18 11:05:00,
2013-03-18 07:10:00,23.9,7.9,30.32,NE,52,0.0,0.0,50,0.00,CLR,,0.00,WeatherDisplay:10.37,2013-03-18 11:10:00,
2013-03-18 07:15:00,23.9,7.9,30.32,NE,42,0.0,0.0,50,0.00,CLR,,0.00,WeatherDisplay:10.37,2013-03-18 11:15:00,
2013-03-18 07:20:00,23.9,8.4,30.32,NE,40,0.0,0.0,51,0.00,CLR,,0.00,WeatherDisplay:10.37,2013-03-18 11:20:00,
2013-03-18 07:26:00,24.1,7.7,30.32,ENE,75,0.5,3.0,49,0.00,CLR,,0.00,WeatherDisplay:10.37,2013-03-18 11:26:00,
2013-03-18 07:31:00,24.1,7.7,30.32,NE,49,0.0,0.0,49,0.00,CLR,,0.00,WeatherDisplay:10.37,2013-03-18 11:31:00,
2013-03-18 07:36:00,24.4,7.0,30.32,ENE,75,0.0,0.0,47,0.00,CLR,,0.00,WeatherDisplay:10.37,2013-03-18 11:36:00,
2013-03-18 07:41:00,24.7,6.8,30.32,ENE,76,0.3,2.3,46,0.00,CLR,,0.00,WeatherDisplay:10.37,2013-03-18 11:41:00,
2013-03-18 07:46:00,24.7,6.8,30.32,ENE,71,2.4,3.5,46,0.00,CLR,,0.00,WeatherDisplay:10.37,2013-03-18 11:46:00,
2013-03-18 07:52:00,24.7,6.8,30.32,ENE,72,2.7,6.9,46,0.00,CLR,,0.00,WeatherDisplay:10.37,2013-03-18 11:52:00,
2013-03-18 07:57:00,24.8,6.4,30.32,ENE,65,1.3,4.6,45,0.00,CLR,,0.00,WeatherDisplay:10.37,2013-03-18 11:57:00,
2013-03-18 08:02:00,24.8,6.9,30.32,East,85,0.7,4.6,46,0.00,CLR,,0.00,WeatherDisplay:10.37,2013-03-18 12:02:00,
2013-03-18 08:07:00,25.0,6.6,30.32,ENE,75,1.7,3.5,45,0.00,CLR,,0.00,WeatherDisplay:10.37,2013-03-18 12:07:00,
2013-03-18 08:12:00,25.1,7.2,30.32,East,82,3.1,4.6,46,0.00,CLR,,0.00,WeatherDisplay:10.37,2013-03-18 12:12:00,
2013-03-18 08:18:00,25.1,7.2,30.31,East,90,2.4,4.0,46,0.00,CLR,,0.00,WeatherDisplay:10.37,2013-03-18 12:18:00,
2013-03-18 08:23:00,25.3,7.4,30.32,ENE,59,5.3,6.0,46,0.00,CLR,,0.00,WeatherDisplay:10.37,2013-03-18 12:23:00,
2013-03-18 08:28:00,25.3,7.4,30.32,ENE,71,2.9,10.4,46,0.00,CLR,,0.00,WeatherDisplay:10.37,2013-03-18 12:28:00,
2013-03-18 08:33:00,25.4,7.5,30.31,East,89,2.9,5.8,46,0.00,CLR,,0.00,WeatherDisplay:10.37,2013-03-18 12:33:00,
2013-03-18 08:38:00,25.4,7.5,30.31,East,79,3.2,5.8,46,0.00,CLR,,0.00,WeatherDisplay:10.37,2013-03-18 12:38:00,
2013-03-18 08:43:00,25.6,7.7,30.31,East,92,2.8,5.0,46,0.00,CLR,,0.00,WeatherDisplay:10.37,2013-03-18 12:43:00,
2013-03-18 08:48:00,25.6,7.7,30.32,ENE,78,2.0,2.3,46,0.00,CLR,,0.00,WeatherDisplay:10.37,2013-03-18 12:48:00,
2013-03-18 08:53:00,25.7,7.7,30.32,NE,42,3.3,6.9,46,0.00,CLR,,0.00,WeatherDisplay:10.37,2013-03-18 12:53:00,
2013-03-18 08:58:00,25.8,7.8,30.32,NE,55,4.0,8.1,46,0.00,CLR,,0.00,WeatherDisplay:10.37,2013-03-18 12:58:00,
2013-03-18 09:04:00,26.0,7.5,30.31,ENE,62,3.8,6.9,45,0.00,CLR,,0.00,WeatherDisplay:10.37,2013-03-18 13:04:00,
2013-03-18 09:09:00,26.1,8.6,30.32,ENE,78,0.3,1.2,47,0.00,CLR,,0.00,WeatherDisplay:10.37,2013-03-18 13:09:00,
2013-03-18 09:14:00,26.1,8.1,30.32,ENE,76,6.7,11.5,46,0.00,CLR,,0.00,WeatherDisplay:10.37,2013-03-18 13:14:00,
2013-03-18 09:19:00,26.4,9.3,30.32,East,79,1.5,3.5,48,0.00,CLR,,0.00,WeatherDisplay:10.37,2013-03-18 13:19:00,
2013-03-18 09:24:00,26.6,9.5,30.32,East,86,2.2,5.0,48,0.00,CLR,,0.00,WeatherDisplay:10.37,2013-03-18 13:24:00,
2013-03-18 09:29:00,26.7,9.1,30.33,ENE,68,3.1,5.8,47,0.00,CLR,,0.00,WeatherDisplay:10.37,2013-03-18 13:29:00,
2013-03-18 09:35:00,26.9,9.8,30.32,ESE,119,0.6,3.0,48,0.00,CLR,,0.00,WeatherDisplay:10.37,2013-03-18 13:35:00,
2013-03-18 09:40:00,26.9,9.8,30.32,ESE,112,3.6,5.8,48,0.00,CLR,,0.00,WeatherDisplay:10.37,2013-03-18 13:40:00,
2013-03-18 09:45:00,27.2,11.0,30.31,East,95,0.7,3.5,50,0.00,CLR,,0.00,WeatherDisplay:10.37,2013-03-18 13:45:00,
2013-03-18 09:50:00,27.3,10.6,30.31,ESE,123,1.9,6.0,49,0.00,CLR,,0.00,WeatherDisplay:10.37,2013-03-18 13:50:00,
2013-03-18 09:55:00,27.3,10.6,30.32,ESE,109,0.0,3.5,49,0.00,CLR,,0.00,WeatherDisplay:10.37,2013-03-18 13:55:00,
2013-03-18 10:00:00,27.6,11.4,30.31,SSE,154,3.9,8.1,50,0.00,CLR,,0.00,WeatherDisplay:10.37,2013-03-18 14:00:00,
2013-03-18 10:05:00,27.6,11.4,30.31,SE,126,1.5,5.8,50,0.00,CLR,,0.00,WeatherDisplay:10.37,2013-03-18 14:05:00,
2013-03-18 10:10:00,27.9,12.1,30.31,ENE,75,4.1,8.1,51,0.00,CLR,,0.00,WeatherDisplay:10.37,2013-03-18 14:10:00,
2013-03-18 10:15:00,27.9,11.6,30.30,East,88,2.5,6.9,50,0.00,CLR,,0.00,WeatherDisplay:10.37,2013-03-18 14:15:00,
2013-03-18 10:20:00,28.1,11.8,30.30,East,83,1.8,7.0,50,0.00,CLR,,0.00,WeatherDisplay:10.37,2013-03-18 14:20:00,
2013-03-18 10:25:00,28.1,11.8,30.30,ENE,65,3.4,5.0,50,0.00,CLR,,0.00,WeatherDisplay:10.37,2013-03-18 14:25:00,
2013-03-18 10:30:00,28.2,12.4,30.30,East,82,3.9,6.9,51,0.00,CLR,,0.00,WeatherDisplay:10.37,2013-03-18 14:30:00,
2013-03-18 10:35:00,28.5,13.1,30.30,South,172,0.1,2.3,52,0.00,CLR,,0.00,WeatherDisplay:10.37,2013-03-18 14:35:00,
2013-03-18 10:40:00,29.0,14.0,30.30,East,80,0.7,0.0,53,0.00,CLR,,0.00,WeatherDisplay:10.37,2013-03-18 14:40:00,
2013-03-18 10:45:00,28.7,12.4,30.30,East,96,3.5,4.6,50,0.00,CLR,,0.00,WeatherDisplay:10.37,2013-03-18 14:45:00,
2013-03-18 10:50:00,28.4,13.0,30.29,SSE,152,0.2,5.8,52,0.00,CLR,,0.00,WeatherDisplay:10.37,2013-03-18 14:50:00,
2013-03-18 10:55:00,28.8,13.8,30.30,SSE,151,1.1,4.6,53,0.00,CLR,,0.00,WeatherDisplay:10.37,2013-03-18 14:55:00,
2013-03-18 11:00:00,29.3,14.3,30.30,East,89,5.4,10.0,53,0.00,CLR,,0.00,WeatherDisplay:10.37,2013-03-18 15:00:00,
2013-03-18 11:05:00,30.0,15.3,30.29,SSE,155,3.4,9.2,54,0.00,CLR,,0.00,WeatherDisplay:10.37,2013-03-18 15:05:00,
2013-03-18 11:10:00,30.7,15.1,30.28,SE,131,3.0,5.8,52,0.00,CLR,,0.00,WeatherDisplay:10.37,2013-03-18 15:10:00,
2013-03-18 11:15:00,30.9,15.3,30.28,ESE,102,1.3,3.5,52,0.00,CLR,,0.00,WeatherDisplay:10.37,2013-03-18 15:15:00,
2013-03-18 11:20:00,31.5,16.3,30.28,SSE,150,1.2,6.9,53,0.00,CLR,,0.00,WeatherDisplay:10.37,2013-03-18 15:20:00,
2013-03-18 11:26:00,31.2,16.5,30.28,SSE,147,1.7,5.0,54,0.00,CLR,,0.00,WeatherDisplay:10.37,2013-03-18 15:26:00,
2013-03-18 11:31:00,30.6,15.9,30.28,East,80,5.2,5.2,54,0.00,CLR,,0.00,WeatherDisplay:10.37,2013-03-18 15:31:00,
2013-03-18 11:36:00,30.4,15.7,30.28,ESE,106,3.9,4.0,54,0.00,CLR,,0.00,WeatherDisplay:10.37,2013-03-18 15:36:00,
2013-03-18 11:42:00,30.9,16.2,30.27,ESE,110,0.5,2.3,54,0.00,CLR,,0.00,WeatherDisplay:10.37,2013-03-18 15:42:00,
2013-03-18 11:47:00,30.7,16.4,30.28,SSE,157,0.9,3.5,55,0.00,CLR,,0.00,WeatherDisplay:10.37,2013-03-18 15:47:00,
2013-03-18 11:52:00,30.7,16.0,30.27,SSE,158,1.7,3.5,54,0.00,CLR,,0.00,WeatherDisplay:10.37,2013-03-18 15:52:00,
2013-03-18 11:57:00,30.9,17.0,30.27,SE,136,4.2,6.9,56,0.00,CLR,,0.00,WeatherDisplay:10.37,2013-03-18 15:57:00,
2013-03-18 12:02:00,30.9,17.0,30.27,East,93,4.6,10.4,56,0.00,CLR,,0.00,WeatherDisplay:10.37,2013-03-18 16:02:00,
2013-03-18 12:07:00,30.9,17.4,30.27,SE,127,3.9,8.1,57,0.00,CLR,,0.00,WeatherDisplay:10.37,2013-03-18 16:07:00,
2013-03-18 12:13:00,30.9,17.0,30.27,East,99,3.0,5.8,56,0.00,CLR,,0.00,WeatherDisplay:10.37,2013-03-18 16:13:00,
2013-03-18 12:18:00,31.0,16.7,30.27,East,82,1.0,6.9,55,0.00,CLR,,0.00,WeatherDisplay:10.37,2013-03-18 16:18:00,
2013-03-18 12:23:00,31.0,17.5,30.26,SSE,154,5.4,13.8,57,0.00,CLR,,0.00,WeatherDisplay:10.37,2013-03-18 16:23:00,
2013-03-18 12:28:00,30.9,17.0,30.27,East,100,5.6,11.5,56,0.00,CLR,,0.00,WeatherDisplay:10.37,2013-03-18 16:28:00,
2013-03-18 12:33:00,31.3,17.8,30.26,SSE,150,4.2,8.1,57,0.00,CLR,,0.00,WeatherDisplay:10.37,2013-03-18 16:33:00,
2013-03-18 12:38:00,31.5,18.4,30.25,SE,130,2.4,11.5,58,0.00,CLR,,0.00,WeatherDisplay:10.37,2013-03-18 16:38:00,
2013-03-18 12:43:00,31.6,18.1,30.25,East,89,6.4,9.2,57,0.00,CLR,,0.00,WeatherDisplay:10.37,2013-03-18 16:43:00,
2013-03-18 12:48:00,32.1,18.2,30.25,SSE,147,1.1,6.9,56,0.00,CLR,,0.00,WeatherDisplay:10.37,2013-03-18 16:48:00,
2013-03-18 12:54:00,32.5,19.3,30.24,ESE,106,0.0,4.6,58,0.00,CLR,,0.00,WeatherDisplay:10.37,2013-03-18 16:54:00,
2013-03-18 12:59:00,32.8,19.2,30.23,SSE,152,1.0,3.5,57,0.00,CLR,,0.00,WeatherDisplay:10.37,2013-03-18 16:59:00,
2013-03-18 13:04:00,32.8,19.2,30.24,SE,124,0.5,3.5,57,0.00,CLR,,0.00,WeatherDisplay:10.37,2013-03-18 17:04:00,
2013-03-18 13:09:00,32.9,18.5,30.24,East,89,0.0,3.5,55,0.00,CLR,,0.00,WeatherDisplay:10.37,2013-03-18 17:09:00,
2013-03-18 13:14:00,32.7,19.1,30.23,SE,140,0.0,0.0,57,0.00,CLR,,0.00,WeatherDisplay:10.37,2013-03-18 17:14:00,
2013-03-18 13:19:00,32.8,20.0,30.23,SE,124,1.7,6.9,59,0.00,CLR,,0.00,WeatherDisplay:10.37,2013-03-18 17:19:00,
2013-03-18 13:24:00,32.5,19.7,30.22,SE,138,3.9,5.8,59,0.00,CLR,,0.00,WeatherDisplay:10.37,2013-03-18 17:24:00,
2013-03-18 13:29:00,32.7,20.7,30.21,East,93,3.0,8.1,61,0.00,CLR,,0.00,WeatherDisplay:10.37,2013-03-18 17:29:00,
2013-03-18 13:35:00,32.7,20.7,30.21,East,93,4.9,11.0,61,0.00,CLR,,0.00,WeatherDisplay:10.37,2013-03-18 17:35:00,
2013-03-18 13:40:00,32.1,20.9,30.21,East,89,6.9,11.5,63,0.00,CLR,,0.00,WeatherDisplay:10.37,2013-03-18 17:40:00,
2013-03-18 13:45:00,31.9,21.1,30.21,ESE,107,5.0,11.5,64,0.00,CLR,,0.00,WeatherDisplay:10.37,2013-03-18 17:45:00,
2013-03-18 13:50:00,31.9,21.5,30.21,East,92,6.4,12.0,65,0.00,CLR,,0.00,WeatherDisplay:10.37,2013-03-18 17:50:00,
2013-03-18 13:55:00,31.9,21.5,30.21,East,99,6.8,11.5,65,0.00,CLR,,0.00,WeatherDisplay:10.37,2013-03-18 17:55:00,
2013-03-18 14:00:00,31.9,21.5,30.20,SSE,158,6.0,11.5,65,0.00,CLR,,0.00,WeatherDisplay:10.37,2013-03-18 18:00:00,
2013-03-18 14:05:00,31.9,21.8,30.20,East,80,6.7,8.1,66,0.00,CLR,,0.00,WeatherDisplay:10.37,2013-03-18 18:05:00,
2013-03-18 14:10:00,31.8,21.7,30.20,ESE,110,2.7,8.1,66,0.00,CLR,,0.00,WeatherDisplay:10.37,2013-03-18 18:10:00,
2013-03-18 14:15:00,31.8,21.7,30.20,SE,145,0.1,3.5,66,0.00,CLR,,0.00,WeatherDisplay:10.37,2013-03-18 18:15:00,
2013-03-18 14:20:00,31.6,21.9,30.19,ESE,110,2.6,11.5,67,0.00,CLR,,0.00,WeatherDisplay:10.37,2013-03-18 18:20:00,
2013-03-18 14:26:00,31.5,21.8,30.19,East,88,6.5,11.5,67,0.00,CLR,,0.00,WeatherDisplay:10.37,2013-03-18 18:26:00,
2013-03-18 14:31:00,31.6,21.9,30.19,SE,145,3.5,6.9,67,0.00,CLR,,0.00,WeatherDisplay:10.37,2013-03-18 18:31:00,
2013-03-18 14:36:00,31.5,21.4,30.18,East,83,6.8,11.5,66,0.00,CLR,,0.00,WeatherDisplay:10.37,2013-03-18 18:36:00,
2013-03-18 14:41:00,31.5,21.8,30.18,East,89,2.5,6.9,67,0.00,CLR,,0.00,WeatherDisplay:10.37,2013-03-18 18:41:00,
2013-03-18 14:46:00,31.3,21.6,30.18,ESE,110,4.6,8.1,67,0.00,CLR,,0.00,WeatherDisplay:10.37,2013-03-18 18:46:00,
2013-03-18 14:51:00,31.3,21.6,30.18,SE,136,1.4,7.0,67,0.00,CLR,,0.00,WeatherDisplay:10.37,2013-03-18 18:51:00,
2013-03-18 14:57:00,31.2,21.5,30.17,East,79,2.2,11.5,67,0.00,CLR,,0.00,WeatherDisplay:10.37,2013-03-18 18:57:00,
2013-03-18 15:02:00,31.3,21.6,30.17,SSE,162,10.0,13.8,67,0.00,CLR,,0.00,WeatherDisplay:10.37,2013-03-18 19:02:00,
2013-03-18 15:07:00,31.2,21.9,30.17,SE,144,0.4,3.5,68,0.00,CLR,,0.00,WeatherDisplay:10.37,2013-03-18 19:07:00,
2013-03-18 15:12:00,31.3,22.0,30.17,SSE,148,1.9,5.8,68,0.00,CLR,,0.00,WeatherDisplay:10.37,2013-03-18 19:12:00,
2013-03-18 15:17:00,31.2,21.9,30.17,SE,133,5.2,9.2,68,0.00,CLR,,0.00,WeatherDisplay:10.37,2013-03-18 19:17:00,
2013-03-18 15:22:00,31.2,21.9,30.17,SSE,162,1.2,5.8,68,0.00,CLR,,0.00,WeatherDisplay:10.37,2013-03-18 19:22:00,
2013-03-18 15:27:00,31.2,21.9,30.18,SSE,148,3.2,8.1,68,0.00,CLR,,0.00,WeatherDisplay:10.37,2013-03-18 19:27:00,
2013-03-18 15:32:00,31.2,21.9,30.18,SE,126,2.8,10.4,68,0.00,CLR,,0.00,WeatherDisplay:10.37,2013-03-18 19:32:00,
2013-03-18 15:38:00,31.2,21.9,30.17,East,89,0.2,1.2,68,0.00,CLR,,0.00,WeatherDisplay:10.37,2013-03-18 19:38:00,
2013-03-18 15:43:00,31.2,21.9,30.17,East,96,2.4,6.9,68,0.00,CLR,,0.00,WeatherDisplay:10.37,2013-03-18 19:43:00,
2013-03-18 15:48:00,31.2,22.2,30.16,ESE,113,0.0,0.0,69,0.00,CLR,,0.00,WeatherDisplay:10.37,2013-03-18 19:48:00,
2013-03-18 15:53:00,31.0,22.0,30.16,East,97,0.6,3.5,69,0.00,CLR,,0.00,WeatherDisplay:10.37,2013-03-18 19:53:00,
2013-03-18 15:58:00,31.0,23.0,30.16,ESE,104,0.0,0.0,72,0.00,CLR,,0.00,WeatherDisplay:10.37,2013-03-18 19:58:00,
2013-03-18 16:03:00,30.7,23.7,30.15,East,88,2.4,5.0,75,0.00,CLR,,0.00,WeatherDisplay:10.37,2013-03-18 20:03:00,
2013-03-18 16:08:00,30.4,23.7,30.14,East,95,1.0,6.9,76,0.00,CLR,,0.00,WeatherDisplay:10.37,2013-03-18 20:08:00,
2013-03-18 16:13:00,30.3,24.0,30.14,East,79,1.6,6.0,77,0.00,CLR,,0.00,WeatherDisplay:10.37,2013-03-18 20:13:00,
2013-03-18 16:18:00,30.0,24.0,30.13,East,86,2.3,5.8,78,0.00,CLR,,0.00,WeatherDisplay:10.37,2013-03-18 20:18:00,
2013-03-18 16:23:00,29.8,24.4,30.14,SSE,160,1.2,3.5,80,0.00,CLR,,0.00,WeatherDisplay:10.37,2013-03-18 20:23:00,
2013-03-18 16:28:00,29.5,24.4,30.13,East,93,3.0,5.8,81,0.00,CLR,,0.00,WeatherDisplay:10.37,2013-03-18 20:28:00,
2013-03-18 16:33:00,29.4,24.6,30.13,ENE,66,3.1,5.0,82,0.00,CLR,,0.00,WeatherDisplay:10.37,2013-03-18 20:33:00,
2013-03-18 16:38:00,29.3,24.8,30.13,East,89,5.2,7.0,83,0.00,CLR,,0.00,WeatherDisplay:10.37,2013-03-18 20:38:00,
2013-03-18 16:43:00,29.3,25.1,30.13,East,93,1.1,5.8,84,0.00,CLR,,0.00,WeatherDisplay:10.37,2013-03-18 20:43:00,
2013-03-18 16:48:00,29.0,24.5,30.14,ENE,68,1.5,6.9,83,0.00,CLR,,0.00,WeatherDisplay:10.37,2013-03-18 20:48:00,
2013-03-18 16:54:00,28.8,24.3,30.13,ENE,58,5.5,10.0,83,0.00,CLR,,0.00,WeatherDisplay:10.37,2013-03-18 20:54:00,
2013-03-18 16:59:00,28.7,23.9,30.13,ESE,104,5.3,6.9,82,0.00,CLR,,0.00,WeatherDisplay:10.37,2013-03-18 20:59:00,
2013-03-18 17:04:00,28.7,24.2,30.12,East,88,6.3,9.2,83,0.00,CLR,,0.00,WeatherDisplay:10.37,2013-03-18 21:04:00,
2013-03-18 17:09:00,28.5,23.7,30.12,East,82,9.0,11.5,82,0.00,CLR,,0.00,WeatherDisplay:10.37,2013-03-18 21:09:00,
2013-03-18 17:14:00,28.4,23.6,30.11,ENE,61,7.9,11.5,82,0.00,CLR,,0.00,WeatherDisplay:10.37,2013-03-18 21:14:00,
2013-03-18 17:19:00,28.2,23.1,30.11,ENE,61,8.2,11.5,81,0.00,CLR,,0.00,WeatherDisplay:10.37,2013-03-18 21:19:00,
2013-03-18 17:24:00,28.2,23.4,30.11,East,83,4.7,11.5,82,0.00,CLR,,0.00,WeatherDisplay:10.37,2013-03-18 21:24:00,
2013-03-18 17:29:00,27.9,23.4,30.10,East,92,10.5,11.5,83,0.00,CLR,,0.00,WeatherDisplay:10.37,2013-03-18 21:29:00,
2013-03-18 17:34:00,27.8,23.6,30.08,East,100,8.0,12.7,84,0.00,CLR,,0.00,WeatherDisplay:10.37,2013-03-18 21:34:00,
2013-03-18 17:39:00,27.6,23.7,30.07,East,88,10.3,11.5,85,0.00,CLR,,0.00,WeatherDisplay:10.37,2013-03-18 21:39:00,
2013-03-18 17:44:00,27.3,23.7,30.07,East,86,5.4,10.4,86,0.00,CLR,,0.00,WeatherDisplay:10.37,2013-03-18 21:44:00,
2013-03-18 17:49:00,27.3,23.4,30.07,ESE,113,3.1,8.1,85,0.00,CLR,,0.00,WeatherDisplay:10.37,2013-03-18 21:49:00,
2013-03-18 17:54:00,27.3,23.7,30.07,NNE,13,4.4,12.7,86,0.00,CLR,,0.00,WeatherDisplay:10.37,2013-03-18 21:54:00,
2013-03-18 17:59:00,27.2,23.8,30.07,NE,40,4.1,8.1,87,0.00,CLR,,0.00,WeatherDisplay:10.37,2013-03-18 21:59:00,
2013-03-18 18:04:00,27.0,23.6,30.07,SE,144,6.7,6.7,87,0.00,CLR,,0.00,WeatherDisplay:10.37,2013-03-18 22:04:00,
2013-03-18 18:10:00,27.0,23.9,30.07,NE,47,3.6,6.9,88,0.00,CLR,,0.00,WeatherDisplay:10.37,2013-03-18 22:10:00,
2013-03-18 18:15:00,27.0,23.9,30.08,ENE,73,1.4,5.0,88,0.00,CLR,,0.00,WeatherDisplay:10.37,2013-03-18 22:15:00,
2013-03-18 18:20:00,26.9,24.1,30.08,East,83,0.0,0.0,89,0.00,CLR,,0.00,WeatherDisplay:10.37,2013-03-18 22:20:00,
2013-03-18 18:25:00,26.9,24.1,30.07,East,86,2.5,5.8,89,0.00,CLR,,0.00,WeatherDisplay:10.37,2013-03-18 22:25:00,
2013-03-18 18:30:00,26.9,24.1,30.07,ENE,73,0.6,4.6,89,0.00,CLR,,0.00,WeatherDisplay:10.37,2013-03-18 22:30:00,
2013-03-18 18:35:00,26.9,24.1,30.07,North,0,1.6,8.0,89,0.00,CLR,,0.00,WeatherDisplay:10.37,2013-03-18 22:35:00,
2013-03-18 18:40:00,26.9,24.4,30.07,NNE,30,4.1,4.6,90,0.00,CLR,,0.00,WeatherDisplay:10.37,2013-03-18 22:40:00,
2013-03-18 18:46:00,26.9,24.4,30.07,East,83,6.2,11.5,90,0.00,CLR,,0.00,WeatherDisplay:10.37,2013-03-18 22:46:00,
2013-03-18 18:51:00,26.9,24.4,30.07,NNE,25,3.5,5.8,90,0.00,CLR,,0.00,WeatherDisplay:10.37,2013-03-18 22:51:00,
2013-03-18 18:56:00,26.9,24.4,30.07,ENE,62,5.1,6.9,90,0.00,CLR,,0.00,WeatherDisplay:10.37,2013-03-18 22:56:00,
2013-03-18 19:01:00,26.9,24.6,30.07,East,97,3.1,5.8,91,0.00,CLR,,0.00,WeatherDisplay:10.37,2013-03-18 23:01:00,
2013-03-18 19:06:00,26.9,24.6,30.07,East,79,4.2,6.9,91,0.00,CLR,,0.00,WeatherDisplay:10.37,2013-03-18 23:06:00,
2013-03-18 19:12:00,26.9,24.6,30.06,ENE,78,6.7,10.4,91,0.00,CLR,,0.00,WeatherDisplay:10.37,2013-03-18 23:12:00,
2013-03-18 19:17:00,26.9,24.6,30.06,NE,52,1.2,6.9,91,0.00,CLR,,0.00,WeatherDisplay:10.37,2013-03-18 23:17:00,
2013-03-18 19:22:00,26.7,24.4,30.06,NE,37,2.6,5.8,91,0.00,CLR,,0.00,WeatherDisplay:10.37,2013-03-18 23:22:00,
2013-03-18 19:28:00,26.7,24.4,30.05,ENE,65,0.2,2.3,91,0.00,CLR,,0.00,WeatherDisplay:10.37,2013-03-18 23:28:00,
2013-03-18 19:33:00,26.9,24.9,30.05,ENE,62,0.2,8.1,92,0.00,CLR,,0.00,WeatherDisplay:10.37,2013-03-18 23:33:00,
2013-03-18 19:38:00,26.9,24.6,30.05,NE,54,1.7,5.8,91,0.00,CLR,,0.00,WeatherDisplay:10.37,2013-03-18 23:38:00,
2013-03-18 19:43:00,26.9,24.9,30.05,East,82,4.6,8.1,92,0.00,CLR,,0.00,WeatherDisplay:10.37,2013-03-18 23:43:00,
2013-03-18 19:48:00,26.9,24.9,30.06,East,85,1.4,6.0,92,0.00,CLR,,0.00,WeatherDisplay:10.37,2013-03-18 23:48:00,
2013-03-18 19:53:00,27.0,25.0,30.06,NNE,30,1.5,6.9,92,0.00,CLR,,0.00,WeatherDisplay:10.37,2013-03-18 23:53:00,
2013-03-18 19:59:00,27.0,25.0,30.05,NE,35,0.8,3.0,92,0.00,CLR,,0.00,WeatherDisplay:10.37,2013-03-18 23:59:00,
2013-03-18 20:04:00,27.2,25.2,30.05,East,82,1.8,5.0,92,0.00,CLR,,0.00,WeatherDisplay:10.37,2013-03-19 00:04:00,
2013-03-18 20:09:00,27.2,25.2,30.04,NE,38,6.1,8.1,92,0.00,CLR,,0.00,WeatherDisplay:10.37,2013-03-19 00:09:00,
2013-03-18 20:14:00,27.2,25.2,30.04,NNE,18,7.0,8.1,92,0.00,CLR,,0.00,WeatherDisplay:10.37,2013-03-19 00:14:00,
2013-03-18 20:19:00,27.3,25.3,30.03,East,95,1.5,5.8,92,0.00,CLR,,0.00,WeatherDisplay:10.37,2013-03-19 00:19:00,
2013-03-18 20:24:00,27.3,25.3,30.03,ENE,72,0.0,3.5,92,0.00,CLR,,0.00,WeatherDisplay:10.37,2013-03-19 00:24:00,
2013-03-18 20:29:00,27.3,25.3,30.03,ENE,64,3.5,4.6,92,0.00,CLR,,0.00,WeatherDisplay:10.37,2013-03-19 00:29:00,
2013-03-18 20:34:00,27.5,25.5,30.03,East,80,0.9,5.0,92,0.00,CLR,,0.00,WeatherDisplay:10.37,2013-03-19 00:34:00,
2013-03-18 20:40:00,27.6,25.6,30.03,NE,44,4.8,8.1,92,0.00,CLR,,0.00,WeatherDisplay:10.37,2013-03-19 00:40:00,
2013-03-18 20:45:00,27.6,25.6,30.02,ENE,75,2.7,4.6,92,0.00,CLR,,0.00,WeatherDisplay:10.37,2013-03-19 00:45:00,
2013-03-18 20:50:00,27.8,25.8,30.02,ENE,72,4.9,6.9,92,0.00,CLR,,0.00,WeatherDisplay:10.37,2013-03-19 00:50:00,
2013-03-18 20:55:00,27.8,25.8,30.02,NNE,28,5.9,8.1,92,0.00,CLR,,0.00,WeatherDisplay:10.37,2013-03-19 00:55:00,
2013-03-18 21:00:00,27.9,25.9,30.02,NNE,27,1.6,5.8,92,0.00,CLR,,0.00,WeatherDisplay:10.37,2013-03-19 01:00:00,
2013-03-18 21:05:00,27.9,25.9,30.02,ENE,73,2.9,5.8,92,0.00,CLR,,0.00,WeatherDisplay:10.37,2013-03-19 01:05:00,
2013-03-18 21:11:00,27.9,25.9,30.02,NE,48,0.0,4.6,92,0.00,CLR,,0.00,WeatherDisplay:10.37,2013-03-19 01:11:00,
2013-03-18 21:16:00,27.9,26.1,30.02,NE,40,4.7,8.0,93,0.00,CLR,,0.00,WeatherDisplay:10.37,2013-03-19 01:16:00,
2013-03-18 21:21:00,28.1,26.3,30.01,North,0,3.0,5.8,93,0.00,CLR,,0.00,WeatherDisplay:10.37,2013-03-19 01:21:00,
2013-03-18 21:26:00,28.1,26.3,30.00,NNE,30,2.8,6.9,93,0.00,CLR,,0.00,WeatherDisplay:10.37,2013-03-19 01:26:00,
2013-03-18 21:32:00,28.1,26.3,30.00,NE,54,2.0,12.0,93,0.00,CLR,,0.00,WeatherDisplay:10.37,2013-03-19 01:32:00,
2013-03-18 21:37:00,28.1,26.3,30.00,ENE,78,4.0,7.0,93,0.00,CLR,,0.00,WeatherDisplay:10.37,2013-03-19 01:37:00,
2013-03-18 21:43:00,28.1,26.3,30.00,NE,54,3.3,5.8,93,0.00,CLR,,0.00,WeatherDisplay:10.37,2013-03-19 01:43:00,
2013-03-18 21:48:00,28.2,26.4,30.00,ENE,68,2.9,4.6,93,0.00,CLR,,0.00,WeatherDisplay:10.37,2013-03-19 01:48:00,
2013-03-18 21:53:00,28.2,26.4,30.00,SE,131,2.7,4.6,93,0.00,CLR,,0.00,WeatherDisplay:10.37,2013-03-19 01:53:00,
2013-03-18 21:58:00,28.2,26.4,29.99,East,80,6.7,10.4,93,0.00,CLR,,0.00,WeatherDisplay:10.37,2013-03-19 01:58:00,
2013-03-18 22:03:00,28.4,26.6,29.99,NNE,20,2.4,6.9,93,0.00,CLR,,0.00,WeatherDisplay:10.37,2013-03-19 02:03:00,
2013-03-18 22:08:00,28.5,26.7,29.99,NNE,27,2.5,9.0,93,0.00,CLR,,0.00,WeatherDisplay:10.37,2013-03-19 02:08:00,
2013-03-18 22:14:00,28.7,26.9,29.99,ENE,71,4.1,6.9,93,0.00,CLR,,0.00,WeatherDisplay:10.37,2013-03-19 02:14:00,
2013-03-18 22:19:00,28.8,27.0,29.99,East,80,8.8,10.4,93,0.00,CLR,,0.00,WeatherDisplay:10.37,2013-03-19 02:19:00,
2013-03-18 22:24:00,29.1,27.3,29.98,North,4,6.3,11.5,93,0.00,CLR,,0.00,WeatherDisplay:10.37,2013-03-19 02:24:00,
2013-03-18 22:29:00,29.3,27.5,29.98,East,80,1.2,5.0,93,0.00,CLR,,0.00,WeatherDisplay:10.37,2013-03-19 02:29:00,
2013-03-18 22:34:00,29.4,27.6,29.98,East,86,3.7,8.1,93,0.00,CLR,,0.00,WeatherDisplay:10.37,2013-03-19 02:34:00,
2013-03-18 22:39:00,29.5,27.7,29.97,ENE,78,3.6,6.0,93,0.00,CLR,,0.00,WeatherDisplay:10.37,2013-03-19 02:39:00,
2013-03-18 22:44:00,29.7,27.9,29.97,East,90,1.8,9.2,93,0.00,CLR,,0.00,WeatherDisplay:10.37,2013-03-19 02:44:00,
2013-03-18 22:50:00,29.8,28.0,29.97,SE,126,0.0,1.2,93,0.00,CLR,,0.00,WeatherDisplay:10.37,2013-03-19 02:50:00,
2013-03-18 22:55:00,30.0,28.2,29.96,ENE,58,4.7,8.1,93,0.00,CLR,,0.00,WeatherDisplay:10.37,2013-03-19 02:55:00,
2013-03-18 23:00:00,30.1,28.3,29.96,NE,52,2.2,6.0,93,0.00,CLR,,0.00,WeatherDisplay:10.37,2013-03-19 03:00:00,
2013-03-18 23:05:00,30.3,28.5,29.96,ENE,59,3.2,5.8,93,0.00,CLR,,0.00,WeatherDisplay:10.37,2013-03-19 03:05:00,
2013-03-18 23:11:00,30.3,28.5,29.95,East,93,5.9,10.4,93,0.00,CLR,,0.00,WeatherDisplay:10.37,2013-03-19 03:11:00,
2013-03-18 23:16:00,30.4,28.6,29.95,East,93,7.7,13.8,93,0.00,CLR,,0.00,WeatherDisplay:10.37,2013-03-19 03:16:00,
2013-03-18 23:22:00,30.6,28.8,29.94,East,86,5.1,12.0,93,0.00,CLR,,0.00,WeatherDisplay:10.37,2013-03-19 03:22:00,
2013-03-18 23:27:00,30.6,28.6,29.93,NE,56,10.6,17.3,92,0.00,CLR,,0.00,WeatherDisplay:10.37,2013-03-19 03:27:00,
2013-03-18 23:32:00,30.7,28.7,29.93,East,80,8.6,11.5,92,0.00,CLR,,0.00,WeatherDisplay:10.37,2013-03-19 03:32:00,
2013-03-18 23:38:00,30.7,28.7,29.92,East,88,7.0,10.4,92,0.00,CLR,,0.00,WeatherDisplay:10.37,2013-03-19 03:38:00,
2013-03-18 23:43:00,30.7,28.7,29.91,East,79,8.3,12.7,92,0.00,CLR,,0.00,WeatherDisplay:10.37,2013-03-19 03:43:00,
2013-03-18 23:48:00,30.9,28.9,29.90,East,88,5.4,10.4,92,0.00,CLR,,0.00,WeatherDisplay:10.37,2013-03-19 03:48:00,
2013-03-18 23:54:00,30.9,28.9,29.90,NE,56,2.8,5.8,92,0.00,CLR,,0.00,WeatherDisplay:10.37,2013-03-19 03:54:00,
2013-03-18 23:59:00,30.9,28.9,29.90,East,80,4.5,10.4,92,0.00,CLR,,0.00,WeatherDisplay:10.37,2013-03-19 03:59:00,